AAUSAT 4 (41460 NORAD) Tracking and Keplerian Element Data

This shows tracking and keplerian element data for the satellite.

Feedback or suggestion? Click here.




ElementValue
Catalog41460
NameAAUSAT 4
Epoch Orbit40489
Epoch Day239.1011102
Epoch Year2023
RAAN104.6856
Inclination98.136
Eccentricity0.0026556
Argument of Perigee153.9488
Mean Anonmoly206.3127
Mean Motion15.91348617
Decay Rate0.00704493
L11 41460U 16025E 23239.10111020 .00704493 20239-3 21487-2 0 9994
L22 41460 98.1360 104.6856 0026556 153.9488 206.3127 15.91348617404897



Live tracking and technical data element details for AAUSAT 4 (NORAD 41460). AAUSAT 4 can be tracked NOW for your location showing map with azimuth and elevation plus other details from your city location.







IsCatalogInMostPopularTable: catalog: 41460, numindb: 481
Update: records affected: 1



GetName: 41460 AAUSAT 4

Hit Count: updated at: Fri, 24 Jan 2025 23:43:48 GMT